Time,TemperatureF,DewpointF,PressureIn,WindDirection,WindDirectionDegrees,WindSpeedMPH,WindSpeedGustMPH,Humidity,HourlyPrecipIn,Conditions,Clouds,dailyrainin,SoftwareType,DateUTC
2013-09-23 00:01:00,52.0,46.0,29.30,West,270,4.0,11.0,79,0.00,,,0.00,Rainwise IP-100,2013-09-23 04:01:00,
2013-09-23 00:06:00,51.0,45.0,29.30,NW,315,2.0,7.0,80,0.00,,,0.00,Rainwise IP-100,2013-09-23 04:06:00,
2013-09-23 00:11:00,51.0,46.0,29.30,NW,315,5.0,7.0,82,0.00,,,0.00,Rainwise IP-100,2013-09-23 04:11:00,
2013-09-23 00:16:00,50.0,45.0,29.31,NNW,337,0.0,7.0,83,0.00,,,0.00,Rainwise IP-100,2013-09-23 04:16:00,
2013-09-23 00:21:00,50.0,45.0,29.31,NNW,337,2.0,5.0,84,0.00,,,0.00,Rainwise IP-100,2013-09-23 04:21:00,
2013-09-23 00:26:00,50.0,45.0,29.31,WNW,292,1.0,4.0,84,0.00,,,0.00,Rainwise IP-100,2013-09-23 04:26:00,
2013-09-23 00:31:00,50.0,46.0,29.31,West,270,2.0,5.0,85,0.00,,,0.00,Rainwise IP-100,2013-09-23 04:31:00,
2013-09-23 00:36:00,49.0,45.0,29.31,West,270,3.0,7.0,87,0.00,,,0.00,Rainwise IP-100,2013-09-23 04:36:00,
2013-09-23 00:41:00,49.0,45.0,29.31,NNW,337,4.0,7.0,87,0.00,,,0.00,Rainwise IP-100,2013-09-23 04:41:00,
2013-09-23 00:46:00,49.0,45.0,29.32,NW,315,4.0,10.0,87,0.00,,,0.00,Rainwise IP-100,2013-09-23 04:46:00,
2013-09-23 00:51:00,49.0,45.0,29.32,North,360,3.0,9.0,86,0.00,,,0.00,Rainwise IP-100,2013-09-23 04:51:00,
2013-09-23 00:56:00,49.0,45.0,29.32,NW,315,9.0,12.0,85,0.00,,,0.00,Rainwise IP-100,2013-09-23 04:56:00,
2013-09-23 01:01:00,49.0,45.0,29.32,NW,315,5.0,10.0,86,0.00,,,0.00,Rainwise IP-100,2013-09-23 05:01:00,
2013-09-23 01:06:00,50.0,46.0,29.31,NW,315,6.0,12.0,85,0.00,,,0.00,Rainwise IP-100,2013-09-23 05:06:00,
2013-09-23 01:11:00,49.0,45.0,29.31,NNW,337,6.0,9.0,86,0.00,,,0.00,Rainwise IP-100,2013-09-23 05:11:00,
2013-09-23 01:16:00,49.0,45.0,29.31,NW,315,6.0,7.0,85,0.00,,,0.00,Rainwise IP-100,2013-09-23 05:16:00,
2013-09-23 01:21:00,49.0,45.0,29.31,NW,315,5.0,9.0,85,0.00,,,0.00,Rainwise IP-100,2013-09-23 05:21:00,
2013-09-23 01:26:00,49.0,45.0,29.32,NW,315,1.0,6.0,86,0.00,,,0.00,Rainwise IP-100,2013-09-23 05:26:00,
2013-09-23 01:31:00,49.0,45.0,29.32,West,270,1.0,6.0,86,0.00,,,0.00,Rainwise IP-100,2013-09-23 05:31:00,
2013-09-23 01:36:00,49.0,45.0,29.32,West,270,0.0,7.0,86,0.00,,,0.00,Rainwise IP-100,2013-09-23 05:36:00,
2013-09-23 01:41:00,48.0,44.0,29.32,West,270,0.0,2.0,86,0.00,,,0.00,Rainwise IP-100,2013-09-23 05:41:00,
2013-09-23 01:46:00,48.0,46.0,29.32,NE,45,0.0,3.0,91,0.00,,,0.00,Rainwise IP-100,2013-09-23 05:46:00,
2013-09-23 01:51:00,47.0,44.0,29.32,ESE,112,0.0,3.0,91,0.00,,,0.00,Rainwise IP-100,2013-09-23 05:51:00,
2013-09-23 01:56:00,47.0,44.0,29.31,West,270,3.0,6.0,91,0.00,,,0.00,Rainwise IP-100,2013-09-23 05:56:00,
2013-09-23 02:01:00,47.0,44.0,29.31,NW,315,2.0,6.0,92,0.00,,,0.00,Rainwise IP-100,2013-09-23 06:01:00,
2013-09-23 02:06:00,47.0,44.0,29.31,NW,315,5.0,8.0,90,0.00,,,0.00,Rainwise IP-100,2013-09-23 06:06:00,
2013-09-23 02:11:00,47.0,44.0,29.31,NNW,337,2.0,7.0,90,0.00,,,0.00,Rainwise IP-100,2013-09-23 06:11:00,
2013-09-23 02:16:00,47.0,44.0,29.31,NW,315,0.0,4.0,90,0.00,,,0.00,Rainwise IP-100,2013-09-23 06:16:00,
2013-09-23 02:21:00,47.0,44.0,29.31,West,270,2.0,5.0,92,0.00,,,0.00,Rainwise IP-100,2013-09-23 06:21:00,
2013-09-23 02:26:00,47.0,44.0,29.31,North,360,4.0,7.0,92,0.00,,,0.00,Rainwise IP-100,2013-09-23 06:26:00,
2013-09-23 02:31:00,47.0,44.0,29.31,WSW,247,5.0,9.0,92,0.00,,,0.00,Rainwise IP-100,2013-09-23 06:31:00,
2013-09-23 02:36:00,47.0,44.0,29.31,NW,315,4.0,9.0,92,0.00,,,0.00,Rainwise IP-100,2013-09-23 06:36:00,
2013-09-23 02:41:00,47.0,44.0,29.31,NW,315,5.0,9.0,92,0.00,,,0.00,Rainwise IP-100,2013-09-23 06:41:00,
2013-09-23 02:46:00,47.0,44.0,29.31,West,270,3.0,10.0,92,0.00,,,0.00,Rainwise IP-100,2013-09-23 06:46:00,
2013-09-23 02:51:00,47.0,44.0,29.31,NW,315,4.0,8.0,92,0.00,,,0.00,Rainwise IP-100,2013-09-23 06:51:00,
2013-09-23 02:56:00,47.0,44.0,29.31,NNW,337,3.0,9.0,91,0.00,,,0.00,Rainwise IP-100,2013-09-23 06:56:00,
2013-09-23 03:01:00,47.0,44.0,29.31,WNW,292,6.0,6.0,92,0.00,,,0.00,Rainwise IP-100,2013-09-23 07:01:00,
2013-09-23 03:06:00,47.0,44.0,29.31,NNW,337,3.0,7.0,91,0.00,,,0.00,Rainwise IP-100,2013-09-23 07:06:00,
2013-09-23 03:11:00,47.0,44.0,29.31,WNW,292,6.0,8.0,91,0.00,,,0.00,Rainwise IP-100,2013-09-23 07:11:00,
2013-09-23 03:16:00,47.0,44.0,29.31,West,270,5.0,8.0,91,0.00,,,0.00,Rainwise IP-100,2013-09-23 07:16:00,
2013-09-23 03:21:00,47.0,44.0,29.31,West,270,3.0,10.0,91,0.00,,,0.00,Rainwise IP-100,2013-09-23 07:21:00,
2013-09-23 03:26:00,47.0,44.0,29.31,NW,315,4.0,9.0,91,0.00,,,0.00,Rainwise IP-100,2013-09-23 07:26:00,
2013-09-23 03:31:00,47.0,44.0,29.31,SW,225,4.0,7.0,92,0.00,,,0.00,Rainwise IP-100,2013-09-23 07:31:00,
2013-09-23 03:36:00,47.0,44.0,29.31,North,360,2.0,7.0,91,0.00,,,0.00,Rainwise IP-100,2013-09-23 07:36:00,
2013-09-23 03:41:00,46.0,44.0,29.31,West,270,0.0,6.0,92,0.00,,,0.00,Rainwise IP-100,2013-09-23 07:41:00,
2013-09-23 03:46:00,46.0,44.0,29.31,WSW,247,1.0,4.0,93,0.00,,,0.00,Rainwise IP-100,2013-09-23 07:46:00,
2013-09-23 03:51:00,46.0,44.0,29.31,SW,225,0.0,5.0,92,0.00,,,0.00,Rainwise IP-100,2013-09-23 07:51:00,
2013-09-23 03:56:00,46.0,44.0,29.32,SW,225,1.0,5.0,93,0.00,,,0.00,Rainwise IP-100,2013-09-23 07:56:00,
2013-09-23 04:01:00,46.0,44.0,29.32,South,180,1.0,6.0,93,0.00,,,0.00,Rainwise IP-100,2013-09-23 08:01:00,
2013-09-23 04:06:00,46.0,44.0,29.32,WSW,247,0.0,6.0,93,0.00,,,0.00,Rainwise IP-100,2013-09-23 08:06:00,
2013-09-23 04:11:00,45.0,44.0,29.32,SSW,202,1.0,4.0,95,0.00,,,0.00,Rainwise IP-100,2013-09-23 08:11:00,
2013-09-23 04:16:00,45.0,44.0,29.33,WSW,247,1.0,5.0,96,0.00,,,0.00,Rainwise IP-100,2013-09-23 08:16:00,
2013-09-23 04:21:00,45.0,44.0,29.33,WNW,292,0.0,6.0,96,0.00,,,0.00,Rainwise IP-100,2013-09-23 08:21:00,
2013-09-23 04:26:00,45.0,44.0,29.33,SE,135,5.0,5.0,97,0.00,,,0.00,Rainwise IP-100,2013-09-23 08:26:00,
2013-09-23 04:31:00,44.0,43.0,29.33,SE,135,3.0,6.0,97,0.00,,,0.00,Rainwise IP-100,2013-09-23 08:31:00,
2013-09-23 04:36:00,44.0,43.0,29.33,SE,135,1.0,4.0,97,0.00,,,0.00,Rainwise IP-100,2013-09-23 08:36:00,
2013-09-23 04:41:00,44.0,43.0,29.33,West,270,3.0,6.0,97,0.00,,,0.00,Rainwise IP-100,2013-09-23 08:41:00,
2013-09-23 04:46:00,44.0,43.0,29.34,NE,45,0.0,6.0,97,0.00,,,0.00,Rainwise IP-100,2013-09-23 08:46:00,
2013-09-23 04:51:00,44.0,43.0,29.34,West,270,1.0,6.0,97,0.00,,,0.00,Rainwise IP-100,2013-09-23 08:51:00,
2013-09-23 04:56:00,44.0,43.0,29.34,WNW,292,0.0,5.0,97,0.00,,,0.00,Rainwise IP-100,2013-09-23 08:56:00,
2013-09-23 05:01:00,44.0,43.0,29.34,SW,225,0.0,1.0,97,0.00,,,0.00,Rainwise IP-100,2013-09-23 09:01:00,
2013-09-23 05:06:00,44.0,43.0,29.34,SE,135,4.0,4.0,97,0.00,,,0.00,Rainwise IP-100,2013-09-23 09:06:00,
2013-09-23 05:11:00,44.0,43.0,29.34,SE,135,2.0,5.0,97,0.00,,,0.00,Rainwise IP-100,2013-09-23 09:11:00,
2013-09-23 05:16:00,43.0,42.0,29.34,SE,135,2.0,3.0,96,0.00,,,0.00,Rainwise IP-100,2013-09-23 09:16:00,
2013-09-23 05:21:00,43.0,42.0,29.34,West,270,3.0,5.0,96,0.00,,,0.00,Rainwise IP-100,2013-09-23 09:21:00,
2013-09-23 05:26:00,43.0,42.0,29.35,WNW,292,0.0,4.0,96,0.00,,,0.00,Rainwise IP-100,2013-09-23 09:26:00,
2013-09-23 05:31:00,43.0,42.0,29.35,West,270,2.0,3.0,96,0.00,,,0.00,Rainwise IP-100,2013-09-23 09:31:00,
2013-09-23 05:36:00,43.0,42.0,29.35,NW,315,0.0,5.0,96,0.00,,,0.00,Rainwise IP-100,2013-09-23 09:36:00,
2013-09-23 05:41:00,42.0,41.0,29.35,WSW,247,0.0,3.0,96,0.00,,,0.00,Rainwise IP-100,2013-09-23 09:41:00,
2013-09-23 05:46:00,42.0,41.0,29.34,WSW,247,0.0,3.0,96,0.00,,,0.00,Rainwise IP-100,2013-09-23 09:46:00,
2013-09-23 05:51:00,43.0,42.0,29.34,West,270,0.0,4.0,96,0.00,,,0.00,Rainwise IP-100,2013-09-23 09:51:00,
2013-09-23 05:56:00,43.0,42.0,29.35,West,270,3.0,3.0,96,0.00,,,0.00,Rainwise IP-100,2013-09-23 09:56:00,
2013-09-23 06:01:00,43.0,42.0,29.35,West,270,0.0,5.0,96,0.00,,,0.00,Rainwise IP-100,2013-09-23 10:01:00,
2013-09-23 06:06:00,42.0,41.0,29.35,West,270,0.0,3.0,96,0.00,,,0.00,Rainwise IP-100,2013-09-23 10:06:00,
2013-09-23 06:11:00,42.0,41.0,29.35,West,270,1.0,1.0,96,0.00,,,0.00,Rainwise IP-100,2013-09-23 10:11:00,
2013-09-23 06:16:00,42.0,41.0,29.35,West,270,2.0,3.0,96,0.00,,,0.00,Rainwise IP-100,2013-09-23 10:16:00,
2013-09-23 06:21:00,42.0,41.0,29.35,West,270,2.0,2.0,96,0.00,,,0.00,Rainwise IP-100,2013-09-23 10:21:00,
2013-09-23 06:26:00,42.0,41.0,29.35,West,270,0.0,5.0,96,0.00,,,0.00,Rainwise IP-100,2013-09-23 10:26:00,
2013-09-23 06:31:00,42.0,41.0,29.35,West,270,0.0,0.0,96,0.00,,,0.00,Rainwise IP-100,2013-09-23 10:31:00,
2013-09-23 06:36:00,42.0,41.0,29.35,West,270,0.0,3.0,96,0.00,,,0.00,Rainwise IP-100,2013-09-23 10:36:00,
2013-09-23 06:41:00,42.0,41.0,29.35,West,270,1.0,4.0,96,0.00,,,0.00,Rainwise IP-100,2013-09-23 10:41:00,
2013-09-23 06:46:00,42.0,41.0,29.36,SW,225,2.0,3.0,96,0.00,,,0.00,Rainwise IP-100,2013-09-23 10:46:00,
2013-09-23 06:51:00,42.0,41.0,29.36,SW,225,1.0,3.0,96,0.00,,,0.00,Rainwise IP-100,2013-09-23 10:51:00,
2013-09-23 06:56:00,42.0,41.0,29.36,West,270,2.0,6.0,96,0.00,,,0.00,Rainwise IP-100,2013-09-23 10:56:00,
2013-09-23 07:01:00,43.0,42.0,29.36,SW,225,0.0,6.0,96,0.00,,,0.00,Rainwise IP-100,2013-09-23 11:01:00,
2013-09-23 07:06:00,43.0,42.0,29.36,SW,225,1.0,6.0,96,0.00,,,0.00,Rainwise IP-100,2013-09-23 11:06:00,
2013-09-23 07:11:00,43.0,42.0,29.36,WSW,247,0.0,4.0,96,0.00,,,0.00,Rainwise IP-100,2013-09-23 11:11:00,
2013-09-23 07:16:00,43.0,42.0,29.36,WSW,247,5.0,7.0,96,0.00,,,0.00,Rainwise IP-100,2013-09-23 11:16:00,
2013-09-23 07:21:00,44.0,43.0,29.36,WNW,292,0.0,8.0,97,0.00,,,0.00,Rainwise IP-100,2013-09-23 11:21:00,
2013-09-23 07:26:00,44.0,43.0,29.37,WNW,292,0.0,7.0,97,0.00,,,0.00,Rainwise IP-100,2013-09-23 11:26:00,
2013-09-23 07:31:00,44.0,43.0,29.37,West,270,4.0,6.0,97,0.00,,,0.00,Rainwise IP-100,2013-09-23 11:31:00,
2013-09-23 07:36:00,45.0,44.0,29.36,WSW,247,3.0,6.0,96,0.00,,,0.00,Rainwise IP-100,2013-09-23 11:36:00,
2013-09-23 07:41:00,45.0,44.0,29.36,WSW,247,1.0,7.0,96,0.00,,,0.00,Rainwise IP-100,2013-09-23 11:41:00,
2013-09-23 07:46:00,45.0,43.0,29.37,WNW,292,7.0,9.0,94,0.00,,,0.00,Rainwise IP-100,2013-09-23 11:46:00,
2013-09-23 07:51:00,46.0,44.0,29.37,WSW,247,8.0,10.0,93,0.00,,,0.00,Rainwise IP-100,2013-09-23 11:51:00,
2013-09-23 07:56:00,46.0,43.0,29.37,WNW,292,7.0,11.0,91,0.00,,,0.00,Rainwise IP-100,2013-09-23 11:56:00,
2013-09-23 08:01:00,47.0,43.0,29.37,West,270,5.0,10.0,89,0.00,,,0.00,Rainwise IP-100,2013-09-23 12:01:00,
2013-09-23 08:06:00,47.0,43.0,29.37,WNW,292,5.0,9.0,89,0.00,,,0.00,Rainwise IP-100,2013-09-23 12:06:00,
2013-09-23 08:11:00,47.0,43.0,29.37,NNW,337,4.0,9.0,88,0.00,,,0.00,Rainwise IP-100,2013-09-23 12:11:00,
2013-09-23 08:16:00,48.0,44.0,29.37,NNW,337,6.0,10.0,86,0.00,,,0.00,Rainwise IP-100,2013-09-23 12:16:00,
2013-09-23 08:21:00,48.0,44.0,29.37,WSW,247,1.0,9.0,85,0.00,,,0.00,Rainwise IP-100,2013-09-23 12:21:00,
2013-09-23 08:26:00,48.0,44.0,29.37,West,270,3.0,10.0,85,0.00,,,0.00,Rainwise IP-100,2013-09-23 12:26:00,
2013-09-23 08:31:00,48.0,42.0,29.37,North,360,7.0,10.0,80,0.00,,,0.00,Rainwise IP-100,2013-09-23 12:31:00,
2013-09-23 08:36:00,49.0,43.0,29.38,West,270,2.0,12.0,81,0.00,,,0.00,Rainwise IP-100,2013-09-23 12:36:00,
2013-09-23 08:41:00,49.0,42.0,29.38,NNW,337,6.0,12.0,78,0.00,,,0.00,Rainwise IP-100,2013-09-23 12:41:00,
2013-09-23 08:46:00,50.0,42.0,29.37,NNW,337,7.0,12.0,76,0.00,,,0.00,Rainwise IP-100,2013-09-23 12:46:00,
2013-09-23 08:51:00,50.0,42.0,29.37,NNW,337,8.0,15.0,75,0.00,,,0.00,Rainwise IP-100,2013-09-23 12:51:00,
2013-09-23 08:56:00,51.0,42.0,29.38,North,360,12.0,17.0,72,0.00,,,0.00,Rainwise IP-100,2013-09-23 12:56:00,
2013-09-23 09:01:00,51.0,42.0,29.38,NW,315,12.0,16.0,71,0.00,,,0.00,Rainwise IP-100,2013-09-23 13:01:00,
2013-09-23 09:06:00,51.0,41.0,29.39,NW,315,9.0,19.0,69,0.00,,,0.00,Rainwise IP-100,2013-09-23 13:06:00,
2013-09-23 09:11:00,51.0,42.0,29.39,SW,225,5.0,14.0,71,0.00,,,0.00,Rainwise IP-100,2013-09-23 13:11:00,
2013-09-23 09:16:00,51.0,42.0,29.40,North,360,5.0,17.0,70,0.00,,,0.00,Rainwise IP-100,2013-09-23 13:16:00,
2013-09-23 09:21:00,52.0,43.0,29.40,WNW,292,7.0,11.0,73,0.00,,,0.00,Rainwise IP-100,2013-09-23 13:21:00,
2013-09-23 09:26:00,52.0,43.0,29.38,NW,315,4.0,17.0,72,0.00,,,0.00,Rainwise IP-100,2013-09-23 13:26:00,
2013-09-23 09:31:00,52.0,41.0,29.38,NNW,337,10.0,17.0,67,0.00,,,0.00,Rainwise IP-100,2013-09-23 13:31:00,
2013-09-23 09:36:00,52.0,42.0,29.39,NW,315,7.0,17.0,68,0.00,,,0.00,Rainwise IP-100,2013-09-23 13:36:00,
2013-09-23 09:41:00,52.0,41.0,29.39,North,360,14.0,16.0,66,0.00,,,0.00,Rainwise IP-100,2013-09-23 13:41:00,
2013-09-23 09:46:00,53.0,41.0,29.39,North,360,10.0,21.0,65,0.00,,,0.00,Rainwise IP-100,2013-09-23 13:46:00,
2013-09-23 09:51:00,53.0,41.0,29.39,NNW,337,6.0,14.0,66,0.00,,,0.00,Rainwise IP-100,2013-09-23 13:51:00,
2013-09-23 09:56:00,53.0,42.0,29.39,West,270,9.0,22.0,67,0.00,,,0.00,Rainwise IP-100,2013-09-23 13:56:00,
2013-09-23 10:01:00,53.0,40.0,29.39,West,270,4.0,16.0,63,0.00,,,0.00,Rainwise IP-100,2013-09-23 14:01:00,
2013-09-23 10:06:00,54.0,41.0,29.39,NNW,337,10.0,13.0,62,0.00,,,0.00,Rainwise IP-100,2013-09-23 14:06:00,
2013-09-23 10:11:00,54.0,43.0,29.39,NW,315,7.0,13.0,66,0.00,,,0.00,Rainwise IP-100,2013-09-23 14:11:00,
2013-09-23 10:16:00,54.0,41.0,29.39,WNW,292,7.0,13.0,63,0.00,,,0.00,Rainwise IP-100,2013-09-23 14:16:00,
2013-09-23 10:21:00,54.0,42.0,29.39,SSE,157,1.0,12.0,64,0.00,,,0.00,Rainwise IP-100,2013-09-23 14:21:00,
2013-09-23 10:26:00,55.0,41.0,29.39,NNW,337,9.0,15.0,60,0.00,,,0.00,Rainwise IP-100,2013-09-23 14:26:00,
2013-09-23 10:31:00,55.0,42.0,29.39,NNW,337,9.0,16.0,61,0.00,,,0.00,Rainwise IP-100,2013-09-23 14:31:00,
2013-09-23 10:36:00,55.0,42.0,29.38,NNW,337,9.0,16.0,61,0.00,,,0.00,Rainwise IP-100,2013-09-23 14:36:00,
2013-09-23 10:41:00,54.0,41.0,29.38,NW,315,10.0,21.0,61,0.00,,,0.00,Rainwise IP-100,2013-09-23 14:41:00,
2013-09-23 10:46:00,54.0,41.0,29.38,NW,315,13.0,15.0,61,0.00,,,0.00,Rainwise IP-100,2013-09-23 14:46:00,
2013-09-23 10:51:00,54.0,41.0,29.38,NW,315,10.0,20.0,61,0.00,,,0.00,Rainwise IP-100,2013-09-23 14:51:00,
2013-09-23 10:56:00,54.0,41.0,29.39,NW,315,10.0,17.0,61,0.00,,,0.00,Rainwise IP-100,2013-09-23 14:56:00,
2013-09-23 11:01:00,55.0,41.0,29.39,West,270,6.0,19.0,60,0.00,,,0.00,Rainwise IP-100,2013-09-23 15:01:00,
2013-09-23 11:06:00,55.0,42.0,29.38,NNW,337,8.0,16.0,61,0.00,,,0.00,Rainwise IP-100,2013-09-23 15:06:00,
2013-09-23 11:11:00,55.0,42.0,29.38,NE,45,9.0,13.0,62,0.00,,,0.00,Rainwise IP-100,2013-09-23 15:11:00,
2013-09-23 11:16:00,55.0,42.0,29.38,NNW,337,7.0,15.0,61,0.00,,,0.00,Rainwise IP-100,2013-09-23 15:16:00,
2013-09-23 11:21:00,55.0,41.0,29.38,West,270,9.0,15.0,60,0.00,,,0.00,Rainwise IP-100,2013-09-23 15:21:00,
2013-09-23 11:26:00,55.0,41.0,29.39,North,360,8.0,16.0,59,0.00,,,0.00,Rainwise IP-100,2013-09-23 15:26:00,
2013-09-23 11:31:00,56.0,42.0,29.39,WSW,247,8.0,15.0,59,0.00,,,0.00,Rainwise IP-100,2013-09-23 15:31:00,
2013-09-23 11:36:00,56.0,42.0,29.38,NNW,337,8.0,15.0,59,0.00,,,0.00,Rainwise IP-100,2013-09-23 15:36:00,
2013-09-23 11:41:00,56.0,41.0,29.38,West,270,6.0,16.0,58,0.00,,,0.00,Rainwise IP-100,2013-09-23 15:41:00,
2013-09-23 11:46:00,56.0,42.0,29.38,North,360,15.0,15.0,59,0.00,,,0.00,Rainwise IP-100,2013-09-23 15:46:00,
2013-09-23 11:51:00,57.0,43.0,29.38,WNW,292,3.0,15.0,59,0.00,,,0.00,Rainwise IP-100,2013-09-23 15:51:00,
2013-09-23 11:56:00,57.0,42.0,29.38,North,360,12.0,15.0,57,0.00,,,0.00,Rainwise IP-100,2013-09-23 15:56:00,
2013-09-23 12:01:00,57.0,42.0,29.38,North,360,6.0,15.0,57,0.00,,,0.00,Rainwise IP-100,2013-09-23 16:01:00,
2013-09-23 12:06:00,57.0,43.0,29.38,NW,315,6.0,14.0,60,0.00,,,0.00,Rainwise IP-100,2013-09-23 16:06:00,
2013-09-23 12:11:00,57.0,42.0,29.38,North,360,12.0,12.0,57,0.00,,,0.00,Rainwise IP-100,2013-09-23 16:11:00,
2013-09-23 12:16:00,58.0,42.0,29.38,NW,315,15.0,17.0,56,0.00,,,0.00,Rainwise IP-100,2013-09-23 16:16:00,
2013-09-23 12:21:00,57.0,42.0,29.38,NW,315,6.0,16.0,58,0.00,,,0.00,Rainwise IP-100,2013-09-23 16:21:00,
2013-09-23 12:26:00,58.0,43.0,29.38,NW,315,10.0,12.0,57,0.00,,,0.00,Rainwise IP-100,2013-09-23 16:26:00,
2013-09-23 12:31:00,57.0,42.0,29.38,NW,315,9.0,21.0,58,0.00,,,0.00,Rainwise IP-100,2013-09-23 16:31:00,
2013-09-23 12:36:00,58.0,43.0,29.38,NW,315,3.0,16.0,57,0.00,,,0.00,Rainwise IP-100,2013-09-23 16:36:00,
2013-09-23 12:41:00,58.0,43.0,29.38,NNW,337,6.0,14.0,58,0.00,,,0.00,Rainwise IP-100,2013-09-23 16:41:00,
2013-09-23 12:46:00,58.0,43.0,29.38,NW,315,6.0,16.0,58,0.00,,,0.00,Rainwise IP-100,2013-09-23 16:46:00,
2013-09-23 12:51:00,58.0,43.0,29.38,North,360,3.0,17.0,58,0.00,,,0.00,Rainwise IP-100,2013-09-23 16:51:00,
2013-09-23 12:56:00,58.0,43.0,29.38,NNE,22,3.0,16.0,57,0.00,,,0.00,Rainwise IP-100,2013-09-23 16:56:00,
2013-09-23 13:01:00,58.0,42.0,29.38,NW,315,10.0,17.0,55,0.00,,,0.00,Rainwise IP-100,2013-09-23 17:01:00,
2013-09-23 13:06:00,58.0,42.0,29.38,NNW,337,8.0,17.0,55,0.00,,,0.00,Rainwise IP-100,2013-09-23 17:06:00,
2013-09-23 13:11:00,58.0,43.0,29.38,NNW,337,6.0,13.0,58,0.00,,,0.00,Rainwise IP-100,2013-09-23 17:11:00,
2013-09-23 13:16:00,59.0,44.0,29.38,WNW,292,4.0,13.0,58,0.00,,,0.00,Rainwise IP-100,2013-09-23 17:16:00,
2013-09-23 13:21:00,60.0,45.0,29.38,WNW,292,2.0,12.0,58,0.00,,,0.00,Rainwise IP-100,2013-09-23 17:21:00,
2013-09-23 13:26:00,59.0,43.0,29.38,WNW,292,7.0,13.0,55,0.00,,,0.00,Rainwise IP-100,2013-09-23 17:26:00,
2013-09-23 13:31:00,59.0,43.0,29.38,NW,315,9.0,15.0,55,0.00,,,0.00,Rainwise IP-100,2013-09-23 17:31:00,
2013-09-23 13:36:00,59.0,43.0,29.39,NW,315,7.0,14.0,55,0.00,,,0.00,Rainwise IP-100,2013-09-23 17:36:00,
2013-09-23 13:41:00,59.0,44.0,29.39,North,360,5.0,16.0,57,0.00,,,0.00,Rainwise IP-100,2013-09-23 17:41:00,
2013-09-23 13:46:00,59.0,42.0,29.39,NW,315,8.0,15.0,54,0.00,,,0.00,Rainwise IP-100,2013-09-23 17:46:00,
2013-09-23 13:51:00,59.0,43.0,29.39,NW,315,6.0,16.0,55,0.00,,,0.00,Rainwise IP-100,2013-09-23 17:51:00,
2013-09-23 13:56:00,59.0,42.0,29.39,NW,315,10.0,14.0,53,0.00,,,0.00,Rainwise IP-100,2013-09-23 17:56:00,
2013-09-23 14:01:00,59.0,42.0,29.39,North,360,10.0,16.0,54,0.00,,,0.00,Rainwise IP-100,2013-09-23 18:01:00,
2013-09-23 14:06:00,60.0,45.0,29.38,NNW,337,5.0,10.0,57,0.00,,,0.00,Rainwise IP-100,2013-09-23 18:06:00,
2013-09-23 14:11:00,60.0,44.0,29.38,NW,315,7.0,13.0,55,0.00,,,0.00,Rainwise IP-100,2013-09-23 18:11:00,
2013-09-23 14:16:00,60.0,45.0,29.38,North,360,2.0,13.0,58,0.00,,,0.00,Rainwise IP-100,2013-09-23 18:16:00,
2013-09-23 14:21:00,60.0,43.0,29.38,NNW,337,13.0,13.0,54,0.00,,,0.00,Rainwise IP-100,2013-09-23 18:21:00,
2013-09-23 14:26:00,60.0,43.0,29.38,WNW,292,10.0,13.0,54,0.00,,,0.00,Rainwise IP-100,2013-09-23 18:26:00,
2013-09-23 14:31:00,60.0,44.0,29.38,North,360,5.0,15.0,55,0.00,,,0.00,Rainwise IP-100,2013-09-23 18:31:00,
2013-09-23 14:36:00,60.0,44.0,29.39,NW,315,8.0,16.0,55,0.00,,,0.00,Rainwise IP-100,2013-09-23 18:36:00,
2013-09-23 14:41:00,60.0,43.0,29.39,NNW,337,10.0,17.0,54,0.00,,,0.00,Rainwise IP-100,2013-09-23 18:41:00,
2013-09-23 14:46:00,60.0,43.0,29.38,NNW,337,13.0,17.0,54,0.00,,,0.00,Rainwise IP-100,2013-09-23 18:46:00,
2013-09-23 14:51:00,59.0,43.0,29.38,WSW,247,7.0,17.0,55,0.00,,,0.00,Rainwise IP-100,2013-09-23 18:51:00,
2013-09-23 14:56:00,59.0,43.0,29.39,NW,315,6.0,15.0,55,0.00,,,0.00,Rainwise IP-100,2013-09-23 18:56:00,
2013-09-23 15:01:00,60.0,43.0,29.39,NNW,337,13.0,13.0,54,0.00,,,0.00,Rainwise IP-100,2013-09-23 19:01:00,
2013-09-23 15:06:00,60.0,44.0,29.39,WNW,292,7.0,14.0,55,0.00,,,0.00,Rainwise IP-100,2013-09-23 19:06:00,
2013-09-23 15:11:00,60.0,43.0,29.39,North,360,10.0,12.0,54,0.00,,,0.00,Rainwise IP-100,2013-09-23 19:11:00,
2013-09-23 15:16:00,60.0,44.0,29.39,WNW,292,7.0,17.0,56,0.00,,,0.00,Rainwise IP-100,2013-09-23 19:16:00,
2013-09-23 15:21:00,60.0,43.0,29.39,North,360,3.0,13.0,54,0.00,,,0.00,Rainwise IP-100,2013-09-23 19:21:00,
2013-09-23 15:26:00,60.0,43.0,29.39,NNW,337,9.0,14.0,54,0.00,,,0.00,Rainwise IP-100,2013-09-23 19:26:00,
2013-09-23 15:31:00,60.0,43.0,29.39,NW,315,4.0,15.0,54,0.00,,,0.00,Rainwise IP-100,2013-09-23 19:31:00,
2013-09-23 15:36:00,60.0,44.0,29.39,NNW,337,7.0,13.0,55,0.00,,,0.00,Rainwise IP-100,2013-09-23 19:36:00,
2013-09-23 15:41:00,60.0,44.0,29.39,NW,315,7.0,15.0,55,0.00,,,0.00,Rainwise IP-100,2013-09-23 19:41:00,
2013-09-23 15:46:00,60.0,44.0,29.39,NNW,337,6.0,12.0,55,0.00,,,0.00,Rainwise IP-100,2013-09-23 19:46:00,
2013-09-23 15:51:00,60.0,44.0,29.39,NW,315,9.0,13.0,55,0.00,,,0.00,Rainwise IP-100,2013-09-23 19:51:00,
2013-09-23 15:56:00,60.0,44.0,29.39,NW,315,3.0,14.0,55,0.00,,,0.00,Rainwise IP-100,2013-09-23 19:56:00,
2013-09-23 16:01:00,60.0,43.0,29.39,WNW,292,6.0,10.0,54,0.00,,,0.00,Rainwise IP-100,2013-09-23 20:01:00,
2013-09-23 16:06:00,60.0,44.0,29.39,NW,315,6.0,12.0,55,0.00,,,0.00,Rainwise IP-100,2013-09-23 20:06:00,
2013-09-23 16:11:00,60.0,44.0,29.39,NW,315,1.0,11.0,55,0.00,,,0.00,Rainwise IP-100,2013-09-23 20:11:00,
2013-09-23 16:16:00,59.0,44.0,29.39,West,270,10.0,13.0,57,0.00,,,0.00,Rainwise IP-100,2013-09-23 20:16:00,
2013-09-23 16:21:00,59.0,44.0,29.39,NNE,22,2.0,12.0,57,0.00,,,0.00,Rainwise IP-100,2013-09-23 20:21:00,
2013-09-23 16:26:00,60.0,44.0,29.39,NNW,337,8.0,12.0,55,0.00,,,0.00,Rainwise IP-100,2013-09-23 20:26:00,
2013-09-23 16:31:00,60.0,44.0,29.39,NW,315,7.0,14.0,55,0.00,,,0.00,Rainwise IP-100,2013-09-23 20:31:00,
2013-09-23 16:36:00,60.0,43.0,29.39,NW,315,3.0,12.0,54,0.00,,,0.00,Rainwise IP-100,2013-09-23 20:36:00,
2013-09-23 16:41:00,59.0,43.0,29.39,NNW,337,8.0,14.0,55,0.00,,,0.00,Rainwise IP-100,2013-09-23 20:41:00,
2013-09-23 16:46:00,59.0,43.0,29.40,NW,315,6.0,14.0,55,0.00,,,0.00,Rainwise IP-100,2013-09-23 20:46:00,
2013-09-23 16:51:00,59.0,43.0,29.40,SW,225,9.0,13.0,56,0.00,,,0.00,Rainwise IP-100,2013-09-23 20:51:00,
2013-09-23 16:56:00,59.0,44.0,29.41,NW,315,6.0,10.0,58,0.00,,,0.00,Rainwise IP-100,2013-09-23 20:56:00,
2013-09-23 17:01:00,59.0,43.0,29.41,West,270,6.0,15.0,56,0.00,,,0.00,Rainwise IP-100,2013-09-23 21:01:00,
2013-09-23 17:06:00,59.0,43.0,29.41,West,270,5.0,14.0,56,0.00,,,0.00,Rainwise IP-100,2013-09-23 21:06:00,
2013-09-23 17:11:00,59.0,44.0,29.41,NW,315,6.0,12.0,57,0.00,,,0.00,Rainwise IP-100,2013-09-23 21:11:00,
2013-09-23 17:16:00,59.0,44.0,29.41,NNE,22,6.0,12.0,57,0.00,,,0.00,Rainwise IP-100,2013-09-23 21:16:00,
2013-09-23 17:21:00,58.0,43.0,29.41,North,360,8.0,15.0,57,0.00,,,0.00,Rainwise IP-100,2013-09-23 21:21:00,
2013-09-23 17:26:00,58.0,44.0,29.41,WNW,292,7.0,11.0,59,0.00,,,0.00,Rainwise IP-100,2013-09-23 21:26:00,
2013-09-23 17:31:00,57.0,43.0,29.41,NW,315,7.0,12.0,60,0.00,,,0.00,Rainwise IP-100,2013-09-23 21:31:00,
2013-09-23 17:36:00,57.0,45.0,29.41,NW,315,1.0,10.0,63,0.00,,,0.00,Rainwise IP-100,2013-09-23 21:36:00,
2013-09-23 17:41:00,56.0,43.0,29.41,NNW,337,3.0,9.0,63,0.00,,,0.00,Rainwise IP-100,2013-09-23 21:41:00,
2013-09-23 17:46:00,56.0,43.0,29.42,NNW,337,6.0,10.0,63,0.00,,,0.00,Rainwise IP-100,2013-09-23 21:46:00,
2013-09-23 17:51:00,56.0,44.0,29.42,NNW,337,3.0,11.0,64,0.00,,,0.00,Rainwise IP-100,2013-09-23 21:51:00,
2013-09-23 17:56:00,55.0,44.0,29.42,NW,315,3.0,9.0,67,0.00,,,0.00,Rainwise IP-100,2013-09-23 21:56:00,
2013-09-23 18:01:00,55.0,44.0,29.42,North,360,7.0,10.0,67,0.00,,,0.00,Rainwise IP-100,2013-09-23 22:01:00,
2013-09-23 18:06:00,55.0,44.0,29.42,NW,315,6.0,13.0,65,0.00,,,0.00,Rainwise IP-100,2013-09-23 22:06:00,
2013-09-23 18:11:00,55.0,44.0,29.42,WNW,292,6.0,9.0,66,0.00,,,0.00,Rainwise IP-100,2013-09-23 22:11:00,
2013-09-23 18:16:00,54.0,43.0,29.43,WNW,292,6.0,12.0,66,0.00,,,0.00,Rainwise IP-100,2013-09-23 22:16:00,
2013-09-23 18:21:00,54.0,43.0,29.43,NNW,337,9.0,12.0,66,0.00,,,0.00,Rainwise IP-100,2013-09-23 22:21:00,
2013-09-23 18:26:00,54.0,43.0,29.43,West,270,9.0,10.0,66,0.00,,,0.00,Rainwise IP-100,2013-09-23 22:26:00,
2013-09-23 18:31:00,53.0,42.0,29.43,NNW,337,5.0,13.0,68,0.00,,,0.00,Rainwise IP-100,2013-09-23 22:31:00,
2013-09-23 18:36:00,53.0,43.0,29.43,NNW,337,4.0,12.0,69,0.00,,,0.00,Rainwise IP-100,2013-09-23 22:36:00,
2013-09-23 18:41:00,53.0,43.0,29.43,NNW,337,6.0,15.0,69,0.00,,,0.00,Rainwise IP-100,2013-09-23 22:41:00,
2013-09-23 18:46:00,53.0,43.0,29.43,NW,315,5.0,9.0,71,0.00,,,0.00,Rainwise IP-100,2013-09-23 22:46:00,
2013-09-23 18:51:00,52.0,43.0,29.43,NNW,337,4.0,7.0,72,0.00,,,0.00,Rainwise IP-100,2013-09-23 22:51:00,
2013-09-23 18:56:00,52.0,43.0,29.44,NNW,337,4.0,8.0,73,0.00,,,0.00,Rainwise IP-100,2013-09-23 22:56:00,
2013-09-23 19:01:00,52.0,43.0,29.44,North,360,7.0,10.0,73,0.00,,,0.00,Rainwise IP-100,2013-09-23 23:01:00,
2013-09-23 19:06:00,51.0,44.0,29.43,NW,315,3.0,7.0,75,0.00,,,0.00,Rainwise IP-100,2013-09-23 23:06:00,
2013-09-23 19:11:00,51.0,43.0,29.43,WNW,292,4.0,8.0,73,0.00,,,0.00,Rainwise IP-100,2013-09-23 23:11:00,
2013-09-23 19:16:00,51.0,43.0,29.44,NNW,337,3.0,8.0,73,0.00,,,0.00,Rainwise IP-100,2013-09-23 23:16:00,
2013-09-23 19:21:00,51.0,44.0,29.44,NW,315,3.0,6.0,76,0.00,,,0.00,Rainwise IP-100,2013-09-23 23:21:00,
2013-09-23 19:26:00,50.0,41.0,29.45,NW,315,5.0,8.0,73,0.00,,,0.00,Rainwise IP-100,2013-09-23 23:26:00,
2013-09-23 19:31:00,50.0,42.0,29.45,NW,315,0.0,7.0,76,0.00,,,0.00,Rainwise IP-100,2013-09-23 23:31:00,
2013-09-23 19:36:00,50.0,43.0,29.45,NW,315,2.0,4.0,77,0.00,,,0.00,Rainwise IP-100,2013-09-23 23:36:00,
2013-09-23 19:41:00,49.0,43.0,29.45,NNW,337,2.0,7.0,79,0.00,,,0.00,Rainwise IP-100,2013-09-23 23:41:00,
2013-09-23 19:46:00,49.0,43.0,29.46,NW,315,2.0,5.0,81,0.00,,,0.00,Rainwise IP-100,2013-09-23 23:46:00,
2013-09-23 19:51:00,49.0,44.0,29.46,NW,315,0.0,7.0,82,0.00,,,0.00,Rainwise IP-100,2013-09-23 23:51:00,
2013-09-23 19:56:00,48.0,44.0,29.46,NW,315,1.0,6.0,84,0.00,,,0.00,Rainwise IP-100,2013-09-23 23:56:00,
2013-09-23 20:01:00,48.0,43.0,29.46,WNW,292,4.0,10.0,82,0.00,,,0.00,Rainwise IP-100,2013-09-24 00:01:00,
2013-09-23 20:06:00,48.0,42.0,29.46,NW,315,5.0,9.0,79,0.00,,,0.00,Rainwise IP-100,2013-09-24 00:06:00,
2013-09-23 20:11:00,48.0,42.0,29.46,NNW,337,4.0,7.0,80,0.00,,,0.00,Rainwise IP-100,2013-09-24 00:11:00,
2013-09-23 20:16:00,48.0,42.0,29.47,NNW,337,0.0,6.0,80,0.00,,,0.00,Rainwise IP-100,2013-09-24 00:16:00,
2013-09-23 20:21:00,48.0,43.0,29.47,NW,315,1.0,3.0,81,0.00,,,0.00,Rainwise IP-100,2013-09-24 00:21:00,
2013-09-23 20:26:00,48.0,43.0,29.47,NW,315,2.0,3.0,82,0.00,,,0.00,Rainwise IP-100,2013-09-24 00:26:00,
2013-09-23 20:31:00,47.0,41.0,29.47,NW,315,1.0,7.0,81,0.00,,,0.00,Rainwise IP-100,2013-09-24 00:31:00,
2013-09-23 20:36:00,47.0,42.0,29.47,WNW,292,2.0,4.0,83,0.00,,,0.00,Rainwise IP-100,2013-09-24 00:36:00,
2013-09-23 20:41:00,47.0,42.0,29.47,WNW,292,2.0,4.0,84,0.00,,,0.00,Rainwise IP-100,2013-09-24 00:41:00,
2013-09-23 20:46:00,47.0,42.0,29.47,WNW,292,0.0,4.0,83,0.00,,,0.00,Rainwise IP-100,2013-09-24 00:46:00,
2013-09-23 20:51:00,46.0,41.0,29.47,WNW,292,1.0,1.0,84,0.00,,,0.00,Rainwise IP-100,2013-09-24 00:51:00,
2013-09-23 20:56:00,46.0,41.0,29.47,WNW,292,0.0,1.0,85,0.00,,,0.00,Rainwise IP-100,2013-09-24 00:56:00,
2013-09-23 21:01:00,46.0,43.0,29.48,WNW,292,1.0,2.0,91,0.00,,,0.00,Rainwise IP-100,2013-09-24 01:01:00,
2013-09-23 21:06:00,46.0,43.0,29.47,SSW,202,2.0,4.0,90,0.00,,,0.00,Rainwise IP-100,2013-09-24 01:06:00,
2013-09-23 21:11:00,46.0,42.0,29.47,North,360,2.0,3.0,88,0.00,,,0.00,Rainwise IP-100,2013-09-24 01:11:00,
2013-09-23 21:16:00,46.0,42.0,29.47,NNW,337,3.0,6.0,87,0.00,,,0.00,Rainwise IP-100,2013-09-24 01:16:00,
2013-09-23 21:21:00,46.0,42.0,29.47,West,270,7.0,7.0,87,0.00,,,0.00,Rainwise IP-100,2013-09-24 01:21:00,
2013-09-23 21:26:00,46.0,43.0,29.47,NW,315,1.0,9.0,90,0.00,,,0.00,Rainwise IP-100,2013-09-24 01:26:00,
2013-09-23 21:31:00,46.0,42.0,29.47,NW,315,5.0,7.0,86,0.00,,,0.00,Rainwise IP-100,2013-09-24 01:31:00,
2013-09-23 21:36:00,46.0,41.0,29.47,WNW,292,6.0,7.0,85,0.00,,,0.00,Rainwise IP-100,2013-09-24 01:36:00,
2013-09-23 21:41:00,46.0,42.0,29.47,NNW,337,7.0,7.0,86,0.00,,,0.00,Rainwise IP-100,2013-09-24 01:41:00,
2013-09-23 21:46:00,46.0,41.0,29.47,WNW,292,6.0,7.0,85,0.00,,,0.00,Rainwise IP-100,2013-09-24 01:46:00,
2013-09-23 21:51:00,46.0,42.0,29.47,NW,315,4.0,7.0,87,0.00,,,0.00,Rainwise IP-100,2013-09-24 01:51:00,
2013-09-23 21:56:00,46.0,42.0,29.47,NW,315,4.0,5.0,87,0.00,,,0.00,Rainwise IP-100,2013-09-24 01:56:00,
2013-09-23 22:01:00,46.0,42.0,29.47,West,270,4.0,8.0,88,0.00,,,0.00,Rainwise IP-100,2013-09-24 02:01:00,
2013-09-23 22:06:00,46.0,42.0,29.46,West,270,5.0,7.0,88,0.00,,,0.00,Rainwise IP-100,2013-09-24 02:06:00,
2013-09-23 22:11:00,45.0,42.0,29.46,NW,315,3.0,7.0,90,0.00,,,0.00,Rainwise IP-100,2013-09-24 02:11:00,
2013-09-23 22:16:00,45.0,42.0,29.46,WNW,292,3.0,7.0,91,0.00,,,0.00,Rainwise IP-100,2013-09-24 02:16:00,
2013-09-23 22:21:00,45.0,42.0,29.46,WNW,292,3.0,4.0,91,0.00,,,0.00,Rainwise IP-100,2013-09-24 02:21:00,
2013-09-23 22:26:00,45.0,42.0,29.46,WNW,292,3.0,4.0,91,0.00,,,0.00,Rainwise IP-100,2013-09-24 02:26:00,
2013-09-23 22:31:00,45.0,43.0,29.46,NNW,337,3.0,6.0,92,0.00,,,0.00,Rainwise IP-100,2013-09-24 02:31:00,
2013-09-23 22:36:00,45.0,43.0,29.46,NNW,337,3.0,5.0,92,0.00,,,0.00,Rainwise IP-100,2013-09-24 02:36:00,
2013-09-23 22:41:00,45.0,43.0,29.46,WSW,247,0.0,4.0,93,0.00,,,0.00,Rainwise IP-100,2013-09-24 02:41:00,
2013-09-23 22:46:00,45.0,43.0,29.46,WSW,247,0.0,1.0,93,0.00,,,0.00,Rainwise IP-100,2013-09-24 02:46:00,
2013-09-23 22:51:00,45.0,43.0,29.46,WSW,247,1.0,1.0,92,0.00,,,0.00,Rainwise IP-100,2013-09-24 02:51:00,
2013-09-23 22:56:00,45.0,43.0,29.46,WSW,247,1.0,2.0,92,0.00,,,0.00,Rainwise IP-100,2013-09-24 02:56:00,
2013-09-23 23:01:00,44.0,42.0,29.46,WSW,247,0.0,2.0,94,0.00,,,0.00,Rainwise IP-100,2013-09-24 03:01:00,
2013-09-23 23:06:00,44.0,43.0,29.46,NW,315,1.0,1.0,95,0.00,,,0.00,Rainwise IP-100,2013-09-24 03:06:00,
2013-09-23 23:11:00,44.0,43.0,29.46,NW,315,1.0,1.0,95,0.00,,,0.00,Rainwise IP-100,2013-09-24 03:11:00,
2013-09-23 23:16:00,44.0,43.0,29.46,NW,315,2.0,3.0,97,0.00,,,0.00,Rainwise IP-100,2013-09-24 03:16:00,
2013-09-23 23:21:00,43.0,42.0,29.46,NW,315,6.0,6.0,96,0.00,,,0.00,Rainwise IP-100,2013-09-24 03:21:00,
2013-09-23 23:26:00,43.0,42.0,29.47,WNW,292,0.0,6.0,96,0.00,,,0.00,Rainwise IP-100,2013-09-24 03:26:00,
2013-09-23 23:31:00,43.0,42.0,29.47,West,270,1.0,3.0,96,0.00,,,0.00,Rainwise IP-100,2013-09-24 03:31:00,
2013-09-23 23:36:00,43.0,42.0,29.46,NNW,337,2.0,5.0,96,0.00,,,0.00,Rainwise IP-100,2013-09-24 03:36:00,
2013-09-23 23:41:00,43.0,42.0,29.46,West,270,1.0,5.0,96,0.00,,,0.00,Rainwise IP-100,2013-09-24 03:41:00,
2013-09-23 23:46:00,44.0,43.0,29.46,WNW,292,2.0,3.0,95,0.00,,,0.00,Rainwise IP-100,2013-09-24 03:46:00,
2013-09-23 23:51:00,44.0,43.0,29.46,NW,315,4.0,6.0,96,0.00,,,0.00,Rainwise IP-100,2013-09-24 03:51:00,
2013-09-23 23:56:00,43.0,42.0,29.46,NW,315,2.0,6.0,95,0.00,,,0.00,Rainwise IP-100,2013-09-24 03:56:00,